Tracking 19250 objects as of 23-Sep-2018
HD Live streaming from Space Station
objects crossing your sky now

FENGYUN 1C DEB

Track FENGYUN 1C DEB now!
10-day predictions


NORAD ID: 31631
Int'l Code: 1999-025CAM
Perigee: 750.0 km
Apogee: 1,028.9 km
Inclination: 99.3 °
Period: 102.6 minutes
Semi major axis: 7260 km
RCS: 0.0204 m2 (small)
Launch date: May 10, 1999
Source: People's Republic of China (PRC)
Launch site: Taiyaun Space Center, China (TSC)

Note: This is SATELLITE DEBRIS
aabbcc
Your satellite tracking list
Your tracking list is empty




NASA's NSSDC Master Catalog

Two Line Element Set (TLE):
1 31631U 99025CAM 18265.51461380 +.00001269 +00000-0 +71567-3 0  9996
2 31631 099.3081 359.8796 0192079 212.9979 145.9079 14.03328300577187
Source of the keplerian elements: AFSPC